Regional Weather Roundup
Issued by NWS Jackson, KY

Home | Current Version | Previous Version | Graphics & Text | Print | Product List | Glossary On
Versions: 1 2 3 4 5 6 7 8 9 10 11 12 13 14 15 16 17 18 19 20 21 22 23 24 25 26 27 28 29 30 31 32 33 34 35 36 37 38 39 40 41 42 43 44 45 46 47 48 49 50
000
ASUS43 KJKL 032010
RWRJKL

EAST KENTUCKY HOURLY WEATHER ROUNDUP
NATIONAL WEATHER SERVICE JACKSON KY
400 PM EDT FRI JUL 03 2015

NOTE: "FAIR" INDICATES FEW OR NO CLOUDS BELOW 12,000 FEET WITH
NO SIGNIFICANT WEATHER AND/OR OBSTRUCTIONS TO VISIBILITY.

* THESE REPORTS ARE NOT UNDER NWS QUALITY CONTROL AND MAY NOT
  REPORT WEATHER SUCH AS PRECIPITATION AND FOG.

KYZ079-080-083-085-087-088-110-112-115-119-120-032100
...EASTERN KENTUCKY...

CITY           SKY/WX    TMP DP  RH WIND       PRES   REMARKS
JACKSON        CLOUDY    73  67  81 VRB3      29.89F
LONDON         PTSUNNY   78  67  68 W12       29.88F
SOMERSET*      PTSUNNY   77  68  73 SW10G16   29.89F
MONTICELLO*    MOSUNNY   82  71  69 SW9G17    29.90F
MIDDLESBORO*   CLOUDY    75  71  87 NE3       29.90F
HARLAN APT*      N/A     72  68  88 S7        29.91F
HAZARD APT*    PTCLDY    73  70  88 S3        29.89F
BLACK MTN*       N/A     63  63 100 SW3         N/A
PIKEVILLE APT* MOSUNNY   72  68  88 CALM      29.90S
BIG SANDY*     CLOUDY    73  68  85 W7        29.89S
MOREHEAD APT*  CLOUDY    75  70  83 CALM      29.88F
$$

KYZ035-036-041-042-044-050-067-078-099-032100
...CENTRAL KENTUCKY...

CITY           SKY/WX    TMP DP  RH WIND       PRES   REMARKS
MT STERLING*   MOSUNNY   73  70  88 W7        29.87F
DANVILLE*      MOSUNNY   81  70  69 SW12      29.86F
RICHMOND*      PTSUNNY   79  68  69 W8        29.86F
LEXINGTON      TSTM      72  70  93 W7        29.86S FOG
FRANKFORT      PTSUNNY   77  69  76 W5        29.85R THUNDER
$$

KYZ091>093-OHZ055-061-077-WVZ005-015-034-035-042-032100
...SOUTHERN OHIO/WEST VIRGINIA...

CITY           SKY/WX    TMP DP  RH WIND       PRES   REMARKS
COVINGTON      CLOUDY    74  65  73 N9        29.87S
COLUMBUS       CLOUDY    73  61  65 NE8       29.89F
DAYTON         CLOUDY    75  64  68 NE7       29.91S
WILMINGTON     CLOUDY    73  64  73 NE9       29.88F
HUNTINGTON     CLOUDY    73  70  90 SW5       29.85F
CHARLESTON     RAIN      72  70  93 N3        29.87S
PINEVILLE*     LGT RAIN  72  72  99 MISG      29.96F
BECKLEY        LGT RAIN  69  65  86 SE7       29.96F
BLUEFIELD      LGT RAIN  69  63  81 S7        29.99F
$$

VAZ002-007-008-TNZ017-027-036-066-071-032100
...SOUTHWEST VIRGINIA/EAST TENNESSEE...

CITY           SKY/WX    TMP DP  RH WIND       PRES   REMARKS
WISE*          LGT RAIN  70  68  94 S7        29.95F
JONESVILLE*      N/A    N/A N/A N/A MISG        N/A
ABINGDON*      LGT RAIN  71  69  94 CALM      29.96F
BRISTOL        LGT RAIN  72  68  87 SW7       29.95S
KNOXVILLE      CLOUDY    75  69  81 SW17      29.92F
OAK RIDGE      CLOUDY    78  69  73 SW8       29.92F
CROSSVILLE     PTSUNNY   76  67  73 W13G18    29.97F
NASHVILLE      CLOUDY    80  73  79 SW8       29.90F
$$

...KEY TO REMARKS...
VSB - VISIBILITY IN MILES
WCI - WIND CHILL INDEX
HX  - HEAT INDEX

$$


USA.gov is the U.S. government's official web portal to all federal, state and local government web resources and services.